Theta_e
290 290 290 289 289 289 288 288 289 289 290 290 290 290 290 290 290 290 290 290 290 289 289 288 289 290 290
291 289 289 289 288 288 287 287 288 288 289 289 289 290 290 290 290 289 289 289 289 289 288 288 287 288 288
291 289 288 287 286 286 286 286 287 287 288 288 288 289 289 289 289 289 289 288 289 288 288 287 286 286 287
290 288 287 287 286 286 286 286 287 287 288 289 290 291 291 291 291 290 289 288 288 288 287 287 286 286 285
288 288 286 285 286 286 286 287 288 289 290 290 291 290 290 290 290 290 289 288 287 287 286 286 286 285 284
287 287 287 286 286 286 287 288 289 289 290 290 288 288 288 288 287 287 287 286 286 285 285 285 285 285 284
286 286 286 285 285 286 288 288 288 288 287 287 286 287 287 286 286 285 284 284 284 283 283 283 283 283 283
283 284 284 286 288 288 287 285 284 285 285 285 285 285 285 285 284 284 284 283 283 283 283 283 283 283 283
285 286 286 286 286 283 283 284 284 284 284 283 284 284 284 283 283 283 283 283 282 282 283 283 283 283 283
283 283 283 283 283 283 283 283 283 282 283 282 282 282 281 282 283 283 282 282 282 282 282 283 283 282 281
282 282 282 282 282 282 282 282 282 282 281 281 281 281 280 280 280 280 280 280 280 280 280 281 281 280 279
280 280 280 280 280 280 280 280 280 280 280 280 280 280 280 280 279 279 279 280 279 279 279 278 278 278 279
280 280 280 280 279 279 279 279 279 279 279 279 279 279 279 279 279 279 278 278 278 278 278 278 277 277 277
279 279 278 279 278 278 278 278 278 278 279 279 279 279 278 278 278 278 278 278 278 277 277 277 277 276 276
277 277 277 277 277 277 277 278 278 278 278 278 278 278 278 278 278 278 278 278 277 277 277 277 276 276 276
275 275 275 275 275 276 275 276 276 276 276 276 276 276 276 276 277 277 277 277 277 277 276 276 276 276 276
272 272 272 273 273 273 273 273 273 274 274 274 274 274 275 275 275 276 277 277 277 277 276 276 275 275 274
Wind_Speed
39 33 36 35 32 30 27 24 21 18 16 14 13 12 11 11 11 12 13 13 13 13 13 14 13 15 16
35 37 32 34 32 29 27 23 19 17 15 14 12 11 11 11 13 14 15 15 15 16 16 16 16 15 15
31 36 34 33 33 30 25 21 18 16 15 13 12 11 11 12 14 15 17 19 19 19 19 19 19 19 18
27 33 33 31 29 26 24 21 18 16 14 13 14 17 18 20 20 21 21 22 22 22 22 22 22 22 22
26 29 30 29 29 26 24 20 20 19 18 20 21 22 21 21 22 22 23 23 24 24 23 23 24 25 24
25 26 27 27 26 25 23 23 23 24 24 24 23 22 21 22 21 22 23 23 23 23 24 24 25 25 24
26 27 26 25 23 24 24 25 26 24 22 24 24 25 23 24 23 23 23 22 23 24 25 25 25 23 21
25 26 26 25 30 30 26 25 25 26 24 27 26 28 25 26 26 25 26 27 27 26 25 24 22 21 21
29 29 28 27 27 27 29 28 29 29 27 28 29 29 29 30 29 28 29 28 26 23 21 22 22 21 23
28 24 19 19 22 23 24 26 27 28 30 32 32 28 29 30 27 25 25 25 25 23 22 21 21 22 23
24 26 28 30 31 31 31 32 32 34 31 28 31 29 29 29 28 27 25 25 23 23 21 24 22 24 29
24 26 26 26 27 28 29 31 33 33 31 30 32 30 31 32 31 28 26 26 26 26 27 29 31 31 26
25 24 23 21 19 20 23 23 26 26 26 27 29 30 31 31 32 30 27 29 29 29 30 31 31 32 32
28 30 25 22 21 22 26 27 28 31 29 27 29 29 33 33 34 36 34 34 30 29 30 32 31 30 30
21 24 22 20 19 15 18 19 23 26 20 17 23 28 32 34 37 37 35 34 32 30 32 34 32 30 32
28 28 28 28 28 29 27 30 30 30 27 25 25 26 26 28 28 31 32 34 33 32 33 37 36 31 33
23 24 22 21 20 20 22 22 21 21 22 21 22 24 25 27 31 28 30 33 34 29 24 27 34 40 40
Wind_Direction
212 209 209 207 207 208 208 212 217 221 225 229 234 240 248 256 263 267 267 268 271 277 280 277 270 270 278
208 208 211 212 211 212 211 213 218 223 229 234 241 246 255 264 267 270 272 271 270 271 270 269 264 263 271
208 205 206 207 207 208 211 213 216 221 226 232 241 251 259 266 271 274 276 273 274 272 271 268 265 266 266
205 201 204 204 206 205 207 211 215 221 230 243 259 266 270 270 271 271 273 274 275 274 273 270 271 270 269
198 196 198 199 203 202 205 211 222 234 249 262 270 269 270 269 268 267 266 266 266 266 267 269 270 272 271
201 202 202 201 203 206 212 224 239 246 260 264 264 266 267 267 267 268 266 267 268 267 271 271 271 270 271
209 207 206 207 209 222 236 247 253 260 265 266 262 266 267 270 271 273 274 272 272 275 275 272 271 271 270
216 212 218 229 239 247 247 249 253 255 256 261 265 267 269 266 266 269 270 271 274 271 268 267 268 270 271
242 242 243 241 238 233 240 246 251 257 262 266 267 272 271 268 268 269 270 270 266 262 259 263 266 268 266
238 230 235 241 239 244 249 249 253 257 258 261 266 271 276 277 275 269 267 263 259 254 257 256 252 262 268
250 247 242 240 241 242 241 247 251 256 260 264 271 273 269 267 270 276 273 273 269 264 258 254 252 260 283
250 250 249 247 246 247 247 247 253 258 262 261 264 265 266 268 271 276 276 271 267 264 269 270 267 272 270
261 259 256 255 257 251 244 246 252 251 251 248 252 256 258 263 265 268 272 273 273 273 273 273 275 279 280
251 256 256 246 245 250 257 259 262 264 261 260 262 260 259 261 266 268 270 270 272 275 276 276 275 274 275
254 250 252 244 237 238 235 240 251 259 257 263 261 260 260 262 264 267 270 271 273 273 274 271 270 274 278
256 260 261 261 264 267 267 267 268 267 269 267 274 279 276 270 265 267 271 270 267 276 276 271 265 267 272
252 253 249 249 248 248 255 258 260 263 267 269 267 266 266 267 275 267 268 267 265 261 256 268 278 282 285